Location: Unspecified
(20.0000°S, 0.0000°E)
Time: 18:11:15
(UTC+00:00)

KKS-1 - Visible Passes

Search period start: 25 August 2019 00:00
Search period end: 04 September 2019 00:00
Orbit: 637 x 650 km, 98.3° (Epoch: 24 August)

Date Brightness Start Highest point End Pass type
(mag) Time Alt. Az. Time Alt. Az. Time Alt. Az.
25 Aug ? 19:07:52 10° N 19:12:05 41° W 19:16:22 10° SSW visible
26 Aug ? 19:33:22 10° NW 19:36:40 20° W 19:40:00 10° SW visible
27 Aug ? 18:20:30 10° NNE 18:24:45 44° ESE 18:29:02 10° S visible
28 Aug ? 18:44:44 10° NNE 18:49:14 87° W 18:53:45 10° SSW visible
29 Aug ? 19:09:33 10° N 19:13:45 40° W 19:18:00 10° SSW visible
30 Aug ? 19:35:05 10° NW 19:38:20 20° W 19:41:36 10° SW visible
31 Aug ? 18:22:08 10° NNE 18:26:25 45° ESE 18:30:42 10° S visible
01 Sep ? 18:46:25 10° N 18:50:53 85° W 18:55:24 10° SSW visible
02 Sep ? 19:11:14 10° N 19:15:25 39° W 19:19:38 10° SSW visible
03 Sep ? 19:36:49 10° NW 19:39:59 19° W 19:43:12 10° SW visible
